TimeMST,TemperatureF,Dew PointF,Humidity,Sea Level PressureIn,VisibilityMPH,Wind Direction,Wind SpeedMPH,Gust SpeedMPH,PrecipitationIn,Events,Conditions,WindDirDegrees,DateUTC
12:05 AM,-20.2,-9999,N/A,30.34,10.0,SSW,3.5,-,N/A,,Clear,210,2013-01-03 07:05:00
12:25 AM,-22.0,-9999,N/A,30.34,10.0,SSW,3.5,-,N/A,,Clear,200,2013-01-03 07:25:00
1:05 AM,-22.0,-9999,N/A,30.33,10.0,Calm,Calm,-,N/A,,Clear,0,2013-01-03 08:05:00
1:25 AM,-22.0,-9999,N/A,30.34,10.0,Calm,Calm,-,N/A,,Clear,0,2013-01-03 08:25:00
1:45 AM,-22.0,-9999,N/A,30.34,10.0,Calm,Calm,-,N/A,,Clear,0,2013-01-03 08:45:00
2:05 AM,-22.0,-9999,N/A,30.33,10.0,Calm,Calm,-,N/A,,Clear,0,2013-01-03 09:05:00
2:25 AM,-23.8,-9999,N/A,30.34,10.0,Calm,Calm,-,N/A,,Clear,0,2013-01-03 09:25:00
2:45 AM,-23.8,-9999,N/A,30.34,10.0,SW,3.5,-,N/A,,Clear,220,2013-01-03 09:45:00
3:05 AM,-25.6,-9999,N/A,30.34,10.0,Calm,Calm,-,N/A,,Clear,0,2013-01-03 10:05:00
3:25 AM,-23.8,-9999,N/A,30.34,10.0,Calm,Calm,-,N/A,,Clear,0,2013-01-03 10:25:00
3:45 AM,-25.6,-9999,N/A,30.34,10.0,Calm,Calm,-,N/A,,Clear,0,2013-01-03 10:45:00
4:05 AM,-23.8,-9999,N/A,30.34,10.0,Calm,Calm,-,N/A,,Clear,0,2013-01-03 11:05:00
4:25 AM,-25.6,-9999,N/A,30.33,10.0,Calm,Calm,-,N/A,,Clear,0,2013-01-03 11:25:00
4:45 AM,-25.6,-9999,N/A,30.33,10.0,Calm,Calm,-,N/A,,Mostly Cloudy,0,2013-01-03 11:45:00
5:05 AM,-25.6,-9999,N/A,30.34,10.0,SSW,3.5,-,N/A,,Overcast,210,2013-01-03 12:05:00
5:25 AM,-25.6,-9999,N/A,30.34,10.0,Calm,Calm,-,N/A,,Mostly Cloudy,0,2013-01-03 12:25:00
5:45 AM,-25.6,-9999,N/A,30.33,10.0,Calm,Calm,-,N/A,,Clear,0,2013-01-03 12:45:00
6:25 AM,-25.6,-9999,N/A,30.33,10.0,Calm,Calm,-,N/A,,Clear,0,2013-01-03 13:25:00
6:45 AM,-25.6,-9999,N/A,30.33,10.0,Calm,Calm,-,N/A,,Clear,0,2013-01-03 13:45:00
7:05 AM,-25.6,-9999,N/A,30.33,10.0,SSW,3.5,-,N/A,,Clear,200,2013-01-03 14:05:00
7:25 AM,-25.6,-9999,N/A,30.33,10.0,Calm,Calm,-,N/A,,Clear,0,2013-01-03 14:25:00
7:45 AM,-25.6,-9999,N/A,30.32,10.0,Calm,Calm,-,N/A,,Clear,0,2013-01-03 14:45:00
8:25 AM,-25.6,-9999,N/A,30.33,10.0,Calm,Calm,-,N/A,,Partly Cloudy,0,2013-01-03 15:25:00
8:45 AM,-22.0,-9999,N/A,30.33,10.0,Calm,Calm,-,N/A,,Partly Cloudy,0,2013-01-03 15:45:00
9:25 AM,-16.6,-9999,N/A,30.34,7.0,Calm,Calm,-,N/A,,Scattered Clouds,0,2013-01-03 16:25:00
9:45 AM,-9.4,-9999,N/A,30.34,10.0,Calm,Calm,-,N/A,,Mostly Cloudy,0,2013-01-03 16:45:00
10:05 AM,-7.6,-9999,N/A,30.34,10.0,Calm,Calm,-,N/A,,Partly Cloudy,0,2013-01-03 17:05:00
10:25 AM,-4.0,-9999,N/A,30.34,10.0,Calm,Calm,-,N/A,,Clear,0,2013-01-03 17:25:00
10:45 AM,-4.0,-9999,N/A,30.34,10.0,Calm,Calm,-,N/A,,Clear,0,2013-01-03 17:45:00
11:05 AM,-2.2,-9999,N/A,30.33,10.0,Calm,Calm,-,N/A,,Clear,0,2013-01-03 18:05:00
11:25 AM,-0.4,-9999,N/A,30.33,10.0,Calm,Calm,-,N/A,,Clear,0,2013-01-03 18:25:00
11:45 AM,1.4,-9999,N/A,30.32,10.0,Calm,Calm,-,N/A,,Clear,0,2013-01-03 18:45:00
12:05 PM,5.0,-9999,N/A,30.31,10.0,NNE,3.5,-,N/A,,Clear,30,2013-01-03 19:05:00
12:25 PM,6.8,-9999,N/A,30.30,10.0,NNE,3.5,-,N/A,,Clear,30,2013-01-03 19:25:00
12:45 PM,6.8,-9999,N/A,30.29,10.0,NE,3.5,-,N/A,,Clear,40,2013-01-03 19:45:00
1:05 PM,8.6,-9999,N/A,30.28,10.0,ENE,3.5,-,N/A,,Clear,60,2013-01-03 20:05:00
1:25 PM,10.4,-9999,N/A,30.28,10.0,Calm,Calm,-,N/A,,Clear,0,2013-01-03 20:25:00
1:45 PM,12.2,-9999,N/A,30.28,10.0,Calm,Calm,-,N/A,,Clear,0,2013-01-03 20:45:00
2:05 PM,12.2,-9999,N/A,30.28,10.0,Calm,Calm,-,N/A,,Clear,0,2013-01-03 21:05:00
2:25 PM,14.0,-9999,N/A,30.27,10.0,Calm,Calm,-,N/A,,Clear,0,2013-01-03 21:25:00
2:45 PM,14.0,-9999,N/A,30.28,10.0,Calm,Calm,-,N/A,,Clear,0,2013-01-03 21:45:00
3:05 PM,15.8,-9999,N/A,30.28,10.0,Calm,Calm,-,N/A,,Clear,0,2013-01-03 22:05:00
3:25 PM,15.8,-9999,N/A,30.28,10.0,Calm,Calm,-,N/A,,Clear,0,2013-01-03 22:25:00
3:45 PM,15.8,-9999,N/A,30.29,10.0,Calm,Calm,-,N/A,,Clear,0,2013-01-03 22:45:00
4:05 PM,15.8,-9999,N/A,30.29,10.0,Calm,Calm,-,N/A,,Clear,0,2013-01-03 23:05:00
4:25 PM,14.0,-9999,N/A,30.30,10.0,Calm,Calm,-,N/A,,Clear,0,2013-01-03 23:25:00
4:45 PM,8.6,-9999,N/A,30.30,10.0,NW,3.5,-,N/A,,Clear,310,2013-01-03 23:45:00
5:05 PM,6.8,-9999,N/A,30.30,10.0,Calm,Calm,-,N/A,,Clear,0,2013-01-04 00:05:00
5:25 PM,5.0,-9999,N/A,30.31,10.0,Calm,Calm,-,N/A,,Clear,0,2013-01-04 00:25:00
5:45 PM,1.4,-9999,N/A,30.31,10.0,Calm,Calm,-,N/A,,Clear,0,2013-01-04 00:45:00
6:05 PM,1.4,-9999,N/A,30.31,10.0,Calm,Calm,-,N/A,,Clear,0,2013-01-04 01:05:00
6:25 PM,-0.4,-9999,N/A,30.31,10.0,Calm,Calm,-,N/A,,Clear,0,2013-01-04 01:25:00
6:45 PM,-2.2,-9999,N/A,30.32,10.0,Calm,Calm,-,N/A,,Clear,0,2013-01-04 01:45:00
7:05 PM,-2.2,-9999,N/A,30.32,10.0,Calm,Calm,-,N/A,,Clear,0,2013-01-04 02:05:00
7:25 PM,-4.0,-9999,N/A,30.31,10.0,Calm,Calm,-,N/A,,Clear,0,2013-01-04 02:25:00
7:45 PM,-5.8,-9999,N/A,30.31,10.0,SSW,3.5,-,N/A,,Clear,200,2013-01-04 02:45:00
8:05 PM,-5.8,-9999,N/A,30.31,10.0,Calm,Calm,-,N/A,,Clear,0,2013-01-04 03:05:00
8:25 PM,-7.6,-9999,N/A,30.30,10.0,Calm,Calm,-,N/A,,Clear,0,2013-01-04 03:25:00
8:45 PM,-7.6,-9999,N/A,30.30,10.0,Calm,Calm,-,N/A,,Clear,0,2013-01-04 03:45:00
9:05 PM,-9.4,-9999,N/A,30.30,10.0,Calm,Calm,-,N/A,,Clear,0,2013-01-04 04:05:00
9:25 PM,-9.4,-9999,N/A,30.30,10.0,Calm,Calm,-,N/A,,Clear,0,2013-01-04 04:25:00
9:45 PM,-11.2,-9999,N/A,30.30,10.0,Calm,Calm,-,N/A,,Clear,0,2013-01-04 04:45:00
10:05 PM,-11.2,-9999,N/A,30.30,10.0,Calm,Calm,-,N/A,,Clear,0,2013-01-04 05:05:00
10:25 PM,-9999,-9999,N/A,30.30,10.0,Calm,Calm,-,N/A,,Clear,0,2013-01-04 05:25:00
10:45 PM,-13.0,-9999,N/A,30.30,10.0,Calm,Calm,-,N/A,,Clear,0,2013-01-04 05:45:00
11:05 PM,-13.0,-9999,N/A,30.30,10.0,SW,3.5,-,N/A,,Clear,230,2013-01-04 06:05:00
11:25 PM,-13.0,-9999,N/A,30.30,10.0,Calm,Calm,-,N/A,,Clear,0,2013-01-04 06:25:00
11:45 PM,-13.0,-9999,N/A,30.30,10.0,Calm,Calm,-,N/A,,Clear,0,2013-01-04 06:45:00